Location: Geroldsau
(48.7259°N, 8.2466°E)
Time: 11:03:53
(UTC+00:00)

Cosmos 1898 Rocket - Pass Details

Date: 20 June 2021
Orbit: 754 x 783 km, 74.0° (Epoch: 27 July)

Event Time Altitude Azimuth Distance (km) Brightness Sun altitude
Rises 00:25:34 0° 334° (NNW) 3,250 7.6 -16.7°
Reaches altitude 10° 00:27:59 10° 332° (NNW) 2,315 6.7 -16.6°
Maximum altitude 00:33:11 66° 251° (WSW) 834 3.5 -16.4°
Enters shadow 00:36:09 25° 176° (S) 1,489 4.4 -16.3°
